Weather in Krasnyy Oktyabr

Russia / Oryol Oblast     52°54′34″N   37°43′54″E
temp.,
°C
wind,
m/s
gust,
m/s
humid.,
%
clouds,
%
prec.,
mm/h
press.,
hPa
HPBL,
m
5 march, fri
fri500:00−2w41093100 0.3 1003500
03:00−3wnw51194100 0.3 1004488
06:00−6nw469595 0.0 1007144
09:00−7wnw379578 0.1 1009154
12:00−4wnw35920 0.0 1011275
15:00−3wnw358911 0.0 1012446
18:00−6w239278 0.0 101421
21:00−8w229384 0.0 101621
6 march, sat
sat600:00−9wnw1194100 0.0 101621
03:00−9wnw1193100 0.0 101721
06:00−10wsw1195100 0.0 101621
09:00−8w2295100 0.2 101784
12:00−7wnw349481 0.0 1017263
15:00−5nw579489 0.8 1016577
18:00−7nw41090100 0.3 1017367
21:00−11wnw348965 0.3 101959
7 march, sun
sun700:00−12w478916 0.0 1019107
03:00−12wsw510918 0.0 1018154
06:00−11sw6149014 0.0 1015282
09:00−7sw9178358 0.0 1012636
12:00−4sw121981100 0.0 1006996
15:00−3wsw121993100 1.1 10021264
18:00−4nw121887100 1.8 10021008
21:00−9w5137469 1.8 1005244
8 march, mon
mon800:00−10sw613770 0.0 1005238
03:00−9sw716850 0.0 1003387
06:00−7wsw7168867 0.0 1001657
09:00−6w8139078 0.1 10021020
12:00−8wnw8127967 0.1 10051000
15:00−8wnw7118162 0.1 1008842
18:00−10w49850 0.0 1010178
21:00−12w47890 0.0 1012102
9 march, tue
tue900:00−13w44880 0.0 101360
03:00−14w349213 0.0 101342
06:00−14nw2395100 0.0 101422
09:00−12n2495100 0.1 1015183
12:00−10nne4691100 0.1 1016520
15:00−10n4687100 0.1 1018726
18:00−13nnw3791100 0.1 1019185
21:00−17nw349477 0.1 102266